360  
ASPQ40 PGUM 261412  
RWRPQ  
WEATHER ROUNDUP FOR THE MARIANAS AND MICRONESIA  
NATIONAL WEATHER SERVICE TIYAN GU  
1200 AM CHST THU JUL 27 2017  
 
GUZ001>004-261500-  
MARIANA ISLANDS-  
 
CITY SKY/WX TMP DP RH WIND PRES REMARKS
 
GUAM AIRPORT CLEAR 77 75 94 CALM 29.85S  
ANDERSEN AFB CLEAR 79 73 83 SW3 29.86S  
ROTA AIRPORT NOT AVBL  
TINIAN AP NOT AVBL  
SAIPAN AP PTCLDY 84 79 84 SW5 29.82S HX 96  
 

 
 
PMZ161-261500-  
REPUBLIC OF PALAU-  
 
CITY SKY/WX TMP DP RH WIND PRES REMARKS
 
KOROR AP MOCLDY 77 75 94 CALM 29.84F  
KOROR WSO MOCLDY 81 79 94 CALM 29.85F  
 

 
 
PMZ171>174-261500-  
FEDERATED STATES OF MICRONESIA-  
 
CITY SKY/WX TMP DP RH WIND PRES REMARKS
 
YAP AIRPORT MOCLDY 81 75 83 VRB2 29.82S  
CHUUK AP CLOUDY 86 79 79 VRB6 29.80F HX 99  
POHNPEI AP NOT AVBL  
POHNPEI WSO CLOUDY 77 75 94 SE5 29.84F  
KOSRAE AP NOT AVBL  
 

 
 
PMZ181-261500-  
REPUBLIC OF THE MARSHALL ISLANDS-  
 
CITY SKY/WX TMP DP RH WIND PRES REMARKS
 
KWAJALEIN AP MOCLDY 82 75 78 E12 29.83F  
MAJURO AP NOT AVBL  
MAJURO WSO CLOUDY 82 77 83 E9 29.81F HX 91  
 

 
 
 
 
CLICK HERE TO GO TO PREVIOUS BULLETINS.

The Nexlab GU Page Main Text Page